FW9243 Weather Reports


Display with metric or nautical units.
time (UTC)temp
F
wind
direction
speed
MPH
gust
MPH
rain 1hr
in
rain 24hr
in
rain mn
in
humidity
%
barometer
mb
20260505053258 48 178 0.0 0.0 0.00 0.07 0.00 94 1015.1
20260505053038 48 0 0.0 2.0 0.00 0.11 0.00 100 1015.4
20260505052751 48 178 0.0 0.0 0.00 0.07 0.00 94 1015.0
20260505052251 48 223 0.0 1.0 0.00 0.07 0.00 93 1015.0
20260505051751 48 178 1.0 1.0 0.00 0.07 0.00 93 1015.1
20260505051539 52 158 1.0 2.0 0.00 0.11 0.00 100 1015.3
20260505051244 0 145 1.0 1.0 0.00 0.07 0.00 1015.0
20260505050744 0 171 1.0 2.0 0.00 0.07 0.00 1015.0
20260505050458 0 171 1.0 2.0 0.00 0.07 0.00 1014.9
20260505041701 0 157 3.0 3.0 0.00 0.07 0.00 1015.0
20260505041548 52 0 1.0 3.0 0.00 0.11 0.00 100 1015.4
20260505041203 0 0.0 0.0 0.00 0.07 0.00 1015.1
20260505040656 0 0.0 0.0 0.00 0.07 0.00 1015.1
20260505040150 0 0.0 0.0 0.00 0.07 0.00 1015.2
20260505040034 52 178 1.0 3.0 0.00 0.11 0.00 100 1015.5
20260505035643 0 0.0 0.0 0.00 0.07 0.00 1015.2
20260505035131 0 0.0 0.0 0.00 0.07 0.00 1015.3
20260505034629 0 0.0 0.0 0.00 0.07 0.00 1015.3
20260505034539 52 151 1.0 4.0 0.00 0.11 0.00 100 1015.5
20260505034123 0 154 3.0 3.0 0.00 0.07 0.00 1015.2
20260505033622 0 154 3.0 3.0 0.00 0.07 0.00 1015.2
20260505033115 0 0.0 0.0 0.00 0.07 0.00 1015.2
20260505033035 52 158 2.0 4.0 0.00 0.11 0.00 100 1015.5
20260505032604 0 178 2.0 2.0 0.00 0.07 0.00 1015.2
20260505032548 0 178 2.0 2.0 0.00 0.07 0.00 1015.3
20260505031603 0 148 2.0 2.0 0.00 0.07 0.00 1015.2
20260505031536 52 124 2.0 2.0 0.00 0.11 0.00 100 1015.6
20260505031102 0 148 2.0 2.0 0.00 0.07 0.00 1015.4
20260505030604 0 0.0 0.0 0.00 0.07 0.00 1015.3
20260505030046 52 221 1.0 2.0 0.00 0.11 0.00 100 1015.7
20260505025604 0 0.0 0.0 0.00 0.07 0.00 1015.3
20260505025102 0 0.0 0.0 0.00 0.07 0.00 1015.4
20260505024603 0 0.0 0.0 0.00 0.07 0.00 1015.4
20260505024540 52 142 1.0 6.0 0.00 0.11 0.00 100 1015.7
20260505024102 47 157 3.0 3.0 0.00 0.07 0.00 93 1015.3
20260505023604 47 157 3.0 3.0 0.00 0.07 0.00 93 1015.3
20260505023102 0 0.0 0.0 0.00 0.07 0.00 1015.4
20260505023038 52 153 1.0 3.0 0.00 0.11 0.00 100 1015.7
20260505022600 0 213 1.0 1.0 0.00 0.07 0.00 1015.3
20260505022318 47 213 1.0 2.0 0.00 0.07 0.00 93 1015.3
20260505021553 47 159 2.0 2.0 0.00 0.07 0.00 93 1015.4
20260505021538 52 178 1.0 4.0 0.00 0.11 0.00 100 1015.7
20260505021052 47 152 1.0 2.0 0.00 0.07 0.00 93 1015.4
20260505020813 0 171 2.0 3.0 0.00 0.07 0.00 1015.4
20260505020057 47 152 3.0 3.0 0.00 0.07 0.00 93 1015.5
20260505020040 52 162 1.0 4.0 0.00 0.11 0.00 100 1015.8
20260505015553 47 161 1.0 3.0 0.00 0.07 0.00 93 1015.5
20260505015052 48 161 3.0 3.0 0.00 0.07 0.00 93 1015.6
20260505015021 48 161 1.0 3.0 0.00 0.07 0.00 93 1015.6
20260505015016 48 161 2.0 3.0 0.00 0.07 0.00 93 1015.6
20260505014559 52 0 1.0 3.0 0.00 0.11 0.00 100 1015.9
20260505013553 48 157 1.0 2.0 0.00 0.07 0.00 93 1015.5
20260505013052 48 157 1.0 2.0 0.00 0.07 0.00 93 1015.7
20260505013047 52 178 0.0 2.0 0.00 0.11 0.00 100 1016.0
20260505012552 48 178 1.0 1.0 0.00 0.07 0.00 93 1015.7
20260505012057 48 206 0.0 2.0 0.00 0.07 0.00 93 1015.7
20260505011817 48 206 2.0 3.0 0.00 0.07 0.00 93 1015.7
20260505011540 52 162 2.0 3.0 0.00 0.11 0.00 100 1016.1
20260505011051 48 206 1.0 3.0 0.00 0.07 0.00 93 1015.7
20260505010552 48 178 1.0 2.0 0.00 0.07 0.00 93 1015.7
20260505010051 48 178 1.0 2.0 0.00 0.07 0.00 94 1015.7
20260505010041 52 178 0.0 2.0 0.00 0.11 0.00 100 1016.1
20260505005552 48 223 1.0 2.0 0.00 0.07 0.00 94 1015.8
20260505005051 48 223 1.0 3.0 0.00 0.07 0.00 93 1015.8
20260505004602 48 269 1.0 3.0 0.00 0.07 0.00 93 1015.9
20260505004544 52 178 1.0 3.0 0.00 0.11 0.00 100 1016.3
20260505004050 48 178 2.0 4.0 0.00 0.07 0.00 93 1015.9
20260505003812 48 171 2.0 4.0 0.00 0.07 0.00 93 1016.0
20260505003051 52 0 0.0 1.0 0.00 0.11 0.00 100 1016.3
20260505002552 49 223 0.0 3.0 0.00 0.07 0.00 93 1016.0
20260505002050 49 197 1.0 3.0 0.00 0.07 0.00 93 1016.0
20260505001551 49 178 1.0 2.0 0.00 0.07 0.00 93 1016.0
20260505001534 52 178 0.0 1.0 0.00 0.11 0.00 100 1016.3
20260505001050 49 161 1.0 1.0 0.00 0.07 0.00 93 1016.0
20260505000550 49 45 1.0 1.0 0.00 0.07 0.00 93 1016.1
20260505000050 49 206 1.0 2.0 0.00 0.07 0.00 93 1016.1
20260505000037 52 178 0.0 1.0 0.00 0.11 0.00 100 1016.4
20260504235550 49 178 1.0 2.0 0.00 0.07 0.00 93 1016.1
20260504235049 49 165 0.0 3.0 0.00 0.07 0.00 93 1016.2
20260504234551 49 241 0.0 3.0 0.00 0.07 0.00 93 1016.1
20260504234535 52 165 0.0 2.0 0.00 0.11 0.00 100 1016.4
20260504234311 49 165 1.0 2.0 0.00 0.07 0.00 93 1016.1
20260504233551 49 269 0.0 1.0 0.00 0.07 0.00 93 1016.2
20260504233049 49 178 1.0 1.0 0.00 0.07 0.00 93 1016.1
20260504233035 52 265 0.0 1.0 0.00 0.11 0.00 100 1016.5
20260504232550 49 213 0.0 2.0 0.00 0.07 0.00 93 1016.2
20260504232306 49 269 1.0 2.0 0.00 0.07 0.00 93 1016.1
20260504231550 49 178 0.0 2.0 0.00 0.07 0.00 93 1016.2
20260504231539 52 0 0.0 1.0 0.00 0.11 0.00 100 1016.5
20260504231049 49 223 0.0 1.0 0.00 0.07 0.00 93 1016.3
20260504230549 49 45 1.0 1.0 0.00 0.07 0.00 93 1016.2
20260504230049 49 178 1.0 3.0 0.00 0.07 0.00 93 1016.3
20260504230035 52 221 0.0 2.0 0.00 0.11 0.00 100 1016.6
20260504225550 49 161 1.0 3.0 0.00 0.07 0.00 92 1016.3
20260504225048 49 152 2.0 3.0 0.00 0.07 0.00 92 1016.2
20260504224808 49 145 1.0 2.0 0.00 0.07 0.00 92 1016.3
20260504224533 52 162 0.0 1.0 0.00 0.11 0.00 100 1016.6
20260504224048 49 178 1.0 1.0 0.00 0.07 0.00 92 1016.3
20260504223550 50 145 0.0 1.0 0.00 0.07 0.00 92 1016.3
20260504223048 50 152 0.0 1.0 0.00 0.07 0.00 92 1016.3
20260504223041 52 0 0.0 1.0 0.00 0.11 0.00 100 1016.7
20260504222549 50 45 0.0 1.0 0.00 0.07 0.00 92 1016.4
20260504222048 50 178 0.0 1.0 0.00 0.07 0.00 92 1016.4
20260504221549 50 193 1.0 1.0 0.00 0.07 0.00 92 1016.4
20260504221540 52 0 0.0 1.0 0.00 0.11 0.00 100 1016.7
20260504221047 50 178 0.0 2.0 0.00 0.07 0.00 92 1016.4
20260504220551 50 178 1.0 2.0 0.00 0.07 0.00 92 1016.4
20260504220047 50 89 1.0 1.0 0.00 0.07 0.00 91 1016.5
20260504220040 52 221 1.0 1.0 0.00 0.11 0.00 100 1016.7
20260504215548 50 145 1.0 1.0 0.00 0.07 0.07 91 1016.4
20260504215047 51 314 1.0 1.0 0.00 0.07 0.07 91 1016.5
20260504214548 51 135 1.0 1.0 0.00 0.07 0.07 91 1016.5
20260504214538 52 0 0.0 1.0 0.00 0.11 0.11 100 1016.8
20260504214046 51 223 1.0 1.0 0.00 0.07 0.07 91 1016.5
20260504213548 51 314 0.0 1.0 0.00 0.07 0.07 91 1016.5
20260504213047 51 178 0.0 2.0 0.00 0.07 0.07 91 1016.5
20260504213036 52 178 1.0 2.0 0.00 0.11 0.11 100 1016.8
20260504212547 51 206 0.0 2.0 0.00 0.07 0.07 91 1016.5
20260504212046 51 269 1.0 2.0 0.00 0.07 0.07 91 1016.5
20260504211556 52 0 0.0 1.0 0.00 0.11 0.11 100 1016.9
20260504211547 51 135 0.0 1.0 0.00 0.07 0.07 91 1016.5
20260504211046 51 178 0.0 2.0 0.00 0.07 0.07 91 1016.7
20260504210547 51 45 0.0 2.0 0.00 0.07 0.07 91 1016.6
20260504210535 51 178 1.0 2.0 0.00 0.07 0.07 90 1016.6
20260504210042 52 265 0.0 1.0 0.00 0.11 0.11 100 1017.0
20260504205546 51 223 1.0 1.0 0.00 0.07 0.07 90 1016.6
20260504205045 52 178 0.0 1.0 0.00 0.07 0.07 90 1016.6
20260504204547 52 314 0.0 1.0 0.00 0.07 0.07 90 1016.6
20260504204539 52 0 0.0 1.0 0.00 0.11 0.11 100 1016.9
20260504204045 52 178 0.0 1.0 0.00 0.07 0.07 90 1016.5
20260504203546 52 223 0.0 1.0 0.00 0.07 0.07 90 1016.4
20260504203045 52 223 0.0 1.0 0.00 0.07 0.07 90 1016.4
20260504203038 52 221 0.0 1.0 0.00 0.11 0.11 100 1016.8
20260504202546 52 135 1.0 1.0 0.00 0.07 0.07 90 1016.4
20260504202045 52 1 0.0 2.0 0.00 0.07 0.07 90 1016.4
20260504201546 52 202 1.0 1.0 0.00 0.07 0.07 90 1016.4
20260504201537 52 0 0.0 1.0 0.00 0.11 0.11 100 1016.7
20260504201044 52 269 0.0 2.0 0.00 0.07 0.07 90 1016.3
20260504200546 52 161 1.0 2.0 0.01 0.07 0.07 89 1016.2
20260504200044 52 206 0.0 2.0 0.01 0.07 0.07 89 1016.2
20260504200036 54 196 1.0 1.0 0.00 0.11 0.11 100 1016.6
20260504195546 53 178 1.0 2.0 0.01 0.06 0.07 88 1016.1
20260504195044 53 135 0.0 1.0 0.01 0.06 0.07 88 1016.1
20260504194546 53 152 0.0 1.0 0.01 0.06 0.07 87 1016.0
20260504194539 54 0.0 0.0 0.00 0.11 0.11 100 1016.4
20260504194044 53 135 0.0 1.0 0.01 0.06 0.07 88 1016.0
20260504193548 53 135 0.0 1.0 0.01 0.06 0.07 87 1015.9
20260504193304 53 135 0.0 2.0 0.01 0.06 0.07 86 1015.9
20260504193041 54 0 0.0 1.0 0.00 0.11 0.11 100 1016.2
20260504192544 53 206 1.0 2.0 0.01 0.06 0.07 86 1015.8
20260504192043 53 314 0.0 2.0 0.01 0.06 0.07 86 1015.8
20260504191545 53 314 1.0 4.0 0.01 0.06 0.06 85 1015.8
20260504191536 54 0 2.0 3.0 0.00 0.11 0.11 100 1016.2
20260504191043 54 223 2.0 4.0 0.00 0.06 0.06 86 1015.7
20260504190813 54 269 1.0 6.0 0.00 0.06 0.06 85 1015.7
20260504190043 54 344 4.0 6.0 0.00 0.06 0.06 83 1015.6
20260504190038 54 272 2.0 6.0 0.00 0.11 0.11 100 1016.1
20260504185545 54 269 2.0 4.0 0.00 0.06 0.06 82 1015.6
20260504185043 54 344 2.0 3.0 0.00 0.06 0.06 82 1015.6
20260504184808 55 32 2.0 3.0 0.00 0.06 0.06 81 1015.6
20260504184544 55 265 1.0 3.0 0.00 0.11 0.11 100 1016.0
20260504184043 55 321 2.0 3.0 0.00 0.06 0.06 80 1015.5
20260504183543 55 1 1.0 4.0 0.00 0.06 0.06 79 1015.5
20260504183043 56 89 1.0 5.0 0.00 0.06 0.06 78 1015.5
20260504183035 55 330 1.0 5.0 0.00 0.11 0.11 75 1015.9
20260504182806 56 220 2.0 5.0 0.00 0.06 0.06 77 1015.4
20260504182042 57 290 2.0 5.0 0.00 0.06 0.06 75 1015.4
20260504181807 57 303 1.0 4.0 0.00 0.06 0.06 75 1015.5
20260504181538 57 0 0.0 5.0 0.00 0.11 0.11 95 1015.8
20260504181259 57 289 2.0 6.0 0.00 0.06 0.06 75 1015.5
20260504180807 58 296 4.0 9.0 0.00 0.06 0.06 74 1015.4
20260504180043 58 312 2.0 9.0 0.00 0.06 0.06 73 1015.5
20260504180039 57 44 4.0 8.0 0.00 0.11 0.11 73 1015.9
20260504175543 58 223 2.0 9.0 0.00 0.06 0.06 76 1015.4
20260504175031 58 219 2.0 9.0 0.00 0.06 0.06 78 1015.4
20260504174543 57 301 2.0 4.0 0.00 0.11 0.11 78 1015.8
20260504174531 58 331 2.0 6.0 0.00 0.06 0.06 78 1015.4
20260504174031 58 254 1.0 2.0 0.00 0.06 0.06 83 1015.4
20260504173530 57 237 1.0 2.0 0.00 0.06 0.06 83 1015.4
20260504173033 53 254 1.0 3.0 0.00 0.11 0.11 100 1015.9
20260504173031 57 250 1.0 3.0 0.00 0.06 0.06 84 1015.4
20260504172758 56 76 2.0 3.0 0.00 0.06 0.06 84 1015.5
20260504172031 56 197 2.0 3.0 0.00 0.06 0.06 84 1015.4
20260504171536 53 280 0.0 3.0 0.00 0.11 0.11 100 1015.8
20260504171524 0 152 0.0 0.0 0.00 0.06 0.06 1015.5
20260504171002 0 0.0 0.0 0.00 0.06 0.06 1015.4
20260504170722 0 0.0 0.0 0.00 0.06 0.06 1015.4
20260504170228 0 0.0 0.0 0.00 0.06 0.06 1015.4
20260504151002 54 152 0.0 1.0 0.01 0.06 0.05 90 1015.5
20260504150727 54 152 0.0 1.0 0.01 0.06 0.06 90 1015.6
20260504140932 54 178 0.0 2.0 0.01 0.05 0.04 90 1015.7
20260504140657 0 178 2.0 2.0 0.01 0.05 0.05 1015.8
20260504130425 55 206 1.0 1.0 0.03 0.03 0.03 84 1015.6
20260504110423 56 24 2.0 4.0 0.00 0.02 0.00 79 1015.7
20260504110413 57 251 2.0 4.0 0.00 0.02 0.00 79 1015.6
20260504100421 59 290 1.0 4.0 0.00 0.02 0.00 72 1015.4
20260504090142 55 330 2.0 3.0 0.00 0.02 0.00 89 1015.4
20260504081918 53 109 1.0 2.0 0.00 0.02 0.00 94 1015.6
20260504081535 52 0 0.0 2.0 0.00 0.89 0.00 100 1015.9
20260504081418 53 314 1.0 2.0 0.00 0.02 0.00 94 1015.6
20260504080918 53 324 2.0 2.0 0.00 0.02 0.00 94 1015.5
20260504080418 52 223 1.0 2.0 0.00 0.02 0.00 94 1015.5